Skip Page Navigation
NASA JPL Caltech
NASA Logo - Jet Propulsion Laboratory + View the NASA Portal
+ Center for Near-Earth Object Studies
JPL Home Earth Solar System Stars & Galaxies Technology
JPL Solar System Dynamics
BODIES ORBITS EPHEMERIDES TOOLS PHYSICAL DATA DISCOVERY FAQ SITE MAP
JPL Small-Body Database Browser
Search: [ help ]  
117005 (2004 HU60)
Classification: Main-belt Asteroid          SPK-ID: 2117005
Ephemeris | Orbit Diagram | Orbital Elements | Mission Design | Physical Parameters | Discovery Circumstances | Close-Approach Data ]

[ show orbit diagram ]
Orbital Elements at Epoch 2459000.5 (2020-May-31.0) TDB
Reference: JPL 26 (heliocentric ecliptic J2000)
 Element Value Uncertainty (1-sigma)   Units 
e .1713857385403056 3.9132e-08  
a 2.707732888132205 1.2442e-08 au
q 2.243666087329792 1.0864e-07 au
i 12.77048654504624 4.4655e-06 deg
node 185.3635314455178 1.6505e-05 deg
peri 192.8849349314872 2.0063e-05 deg
M 100.4253646942451 1.2384e-05 deg
tp 2458546.508132209816
(2019-Mar-04.00813221)
5.4413e-05 TDB
period 1627.448134264351
4.46
1.1217e-05
3.071e-08
d
yr
n .2212052061264178 1.5247e-09 deg/d
Q 3.171799688934617 1.4575e-08 au
  Orbit Determination Parameters
   # obs. used (total)      941  
   data-arc span      8514 days (23.31 yr)  
   first obs. used      1996-10-12  
   last obs. used      2020-02-03  
   planetary ephem.      DE431  
   SB-pert. ephem.      SB431-N16  
   condition code      0  
   norm. resid. RMS      .52303  
   source      ORB  
   producer      Otto Matic  
   solution date      2020-Feb-24 05:41:15  

Additional Information
 Earth MOID = 1.24662 au 
 Jupiter MOID = 2.29254 au 
 T_jup = 3.308 
[ show covariance matrix ]

Ephemeris | Orbit Diagram | Orbital Elements | Mission Design | Physical Parameters | Discovery Circumstances | Close-Approach Data ]

Physical Parameter Table
Parameter Symbol Value Units Sigma Reference Notes
absolute magnitude H 14.8   n/a MPO453640  

117005 (2004 HU60)          Discovered 2004-Apr-25 by Bickel, W. at Bergisch Gladbach
Reference: 20051019/Numbers.arcLast Updated: 2005-10-26

[ show close-approach data ]
Alternate Designations
 2004 HU60 = 2001 VQ97 
Ephemeris | Orbit Diagram | Orbital Elements | Mission Design | Physical Parameters | Discovery Circumstances | Close-Approach Data ]
ABOUT SSD CREDITS/AWARDS PRIVACY/COPYRIGHT GLOSSARY LINKS
FirstGov 2020-Aug-09 03:28 UT
(server date/time)  
NASA Home Page
Site Manager:   Ryan S. Park
Webmaster  Alan B. Chamberlin